Time,TemperatureF,DewpointF,PressureIn,WindDirection,WindDirectionDegrees,WindSpeedMPH,WindSpeedGustMPH,Humidity,HourlyPrecipIn,Conditions,Clouds,dailyrainin,SoftwareType,DateUTC
2013-02-12 00:06:00,25.3,24.8,30.10,West,270,2.2,-999.0,98,-99.99,,,0.00,Acu-Link.com,2013-02-12 06:06:00,
2013-02-12 00:21:00,25.2,24.7,30.10,West,270,1.7,-999.0,98,-99.99,,,0.00,Acu-Link.com,2013-02-12 06:21:00,
2013-02-12 00:37:00,25.0,24.5,30.10,West,270,2.2,-999.0,98,-99.99,,,0.00,Acu-Link.com,2013-02-12 06:37:00,
2013-02-12 00:52:00,24.8,24.3,30.10,West,270,2.2,-999.0,98,-99.99,,,0.00,Acu-Link.com,2013-02-12 06:52:00,
2013-02-12 01:07:00,24.8,24.3,30.11,West,270,1.7,-999.0,98,-99.99,,,0.00,Acu-Link.com,2013-02-12 07:07:00,
2013-02-12 01:22:00,24.4,23.9,30.10,NW,315,0.0,-999.0,98,-99.99,,,0.00,Acu-Link.com,2013-02-12 07:22:00,
2013-02-12 01:37:00,24.1,23.6,30.10,WNW,292,1.1,-999.0,98,-99.99,,,0.00,Acu-Link.com,2013-02-12 07:37:00,
2013-02-12 01:56:00,24.1,23.6,30.10,WSW,247,2.2,-999.0,98,-99.99,,,0.00,Acu-Link.com,2013-02-12 07:56:00,
2013-02-12 02:18:00,24.1,23.6,30.10,SW,225,2.2,-999.0,98,-99.99,,,0.00,Acu-Link.com,2013-02-12 08:18:00,
2013-02-12 02:33:00,24.1,23.6,30.10,SW,225,2.2,-999.0,98,-99.99,,,0.00,Acu-Link.com,2013-02-12 08:33:00,
2013-02-12 02:48:00,23.4,22.9,30.09,SW,225,1.7,-999.0,98,-99.99,,,0.00,Acu-Link.com,2013-02-12 08:48:00,
2013-02-12 03:19:00,23.5,23.0,30.09,West,270,1.7,-999.0,98,-99.99,,,0.00,Acu-Link.com,2013-02-12 09:19:00,
2013-02-12 03:34:00,22.6,22.1,30.08,WNW,292,0.0,-999.0,98,-99.99,,,0.00,Acu-Link.com,2013-02-12 09:34:00,
2013-02-12 03:49:00,22.8,22.3,30.08,WNW,292,1.7,-999.0,98,-99.99,,,0.00,Acu-Link.com,2013-02-12 09:49:00,
2013-02-12 04:04:00,22.1,21.6,30.06,WNW,292,0.0,-999.0,98,-99.99,,,0.00,Acu-Link.com,2013-02-12 10:04:00,
2013-02-12 04:20:00,22.3,21.8,30.06,SW,225,2.2,-999.0,98,-99.99,,,0.00,Acu-Link.com,2013-02-12 10:20:00,
2013-02-12 04:35:00,22.3,21.8,30.05,SW,225,2.7,-999.0,98,-99.99,,,0.00,Acu-Link.com,2013-02-12 10:35:00,
2013-02-12 04:50:00,22.8,22.3,30.06,SW,225,2.7,-999.0,98,-99.99,,,0.00,Acu-Link.com,2013-02-12 10:50:00,
2013-02-12 05:05:00,22.8,22.3,30.06,WSW,247,1.7,-999.0,98,-99.99,,,0.00,Acu-Link.com,2013-02-12 11:05:00,
2013-02-12 05:20:00,23.5,23.0,30.06,SSW,202,3.7,-999.0,98,-99.99,,,0.00,Acu-Link.com,2013-02-12 11:20:00,
2013-02-12 05:35:00,22.3,21.8,30.06,SSW,202,4.7,-999.0,98,-99.99,,,0.00,Acu-Link.com,2013-02-12 11:35:00,
2013-02-12 05:51:00,22.3,21.8,30.06,SSW,202,5.8,-999.0,98,-99.99,,,0.00,Acu-Link.com,2013-02-12 11:51:00,
2013-02-12 06:06:00,22.1,21.6,30.06,South,180,3.2,-999.0,98,-99.99,,,0.00,Acu-Link.com,2013-02-12 12:06:00,
2013-02-12 06:21:00,21.9,21.4,30.07,South,180,4.7,-999.0,98,-99.99,,,0.00,Acu-Link.com,2013-02-12 12:21:00,
2013-02-12 06:36:00,21.9,21.4,30.07,SSW,202,3.2,-999.0,98,-99.99,,,0.00,Acu-Link.com,2013-02-12 12:36:00,
2013-02-12 06:51:00,22.1,21.6,30.05,SSE,157,5.3,-999.0,98,-99.99,,,0.00,Acu-Link.com,2013-02-12 12:51:00,
2013-02-12 07:07:00,21.7,21.2,30.04,South,180,4.2,-999.0,98,-99.99,,,0.00,Acu-Link.com,2013-02-12 13:07:00,
2013-02-12 07:22:00,21.0,20.5,30.03,NNW,337,0.0,-999.0,98,-99.99,,,0.00,Acu-Link.com,2013-02-12 13:22:00,
2013-02-12 07:37:00,20.1,19.6,30.05,NW,315,0.0,-999.0,98,-99.99,,,0.00,Acu-Link.com,2013-02-12 13:37:00,
2013-02-12 07:52:00,22.8,22.3,30.05,South,180,4.7,-999.0,98,-99.99,,,0.00,Acu-Link.com,2013-02-12 13:52:00,
2013-02-12 08:07:00,25.2,24.7,30.04,SSE,157,4.7,-999.0,98,-99.99,,,0.00,Acu-Link.com,2013-02-12 14:07:00,
2013-02-12 08:22:00,27.0,26.5,30.03,SW,225,2.2,-999.0,98,-99.99,,,0.00,Acu-Link.com,2013-02-12 14:22:00,
2013-02-12 08:38:00,28.4,27.9,30.03,SSW,202,2.7,-999.0,98,-99.99,,,0.00,Acu-Link.com,2013-02-12 14:38:00,
2013-02-12 08:53:00,29.7,29.2,30.02,SSE,157,6.3,-999.0,98,-99.99,,,0.00,Acu-Link.com,2013-02-12 14:53:00,
2013-02-12 09:08:00,30.9,30.4,30.03,SSW,202,5.3,-999.0,98,-99.99,,,0.00,Acu-Link.com,2013-02-12 15:08:00,
2013-02-12 09:23:00,31.1,30.6,30.02,SW,225,6.8,-999.0,98,-99.99,,,0.00,Acu-Link.com,2013-02-12 15:23:00,
2013-02-12 09:38:00,34.2,33.7,30.00,South,180,5.8,-999.0,98,-99.99,,,0.00,Acu-Link.com,2013-02-12 15:38:00,
2013-02-12 09:53:00,35.4,32.5,30.01,SSE,157,7.3,-999.0,89,-99.99,,,0.00,Acu-Link.com,2013-02-12 15:53:00,
2013-02-12 10:09:00,37.0,33.8,30.00,SSE,157,8.9,-999.0,88,-99.99,,,0.00,Acu-Link.com,2013-02-12 16:09:00,
2013-02-12 10:24:00,35.6,34.8,30.00,SSE,157,9.4,-999.0,97,-99.99,,,0.00,Acu-Link.com,2013-02-12 16:24:00,
2013-02-12 10:39:00,39.2,35.1,30.00,SW,225,4.7,-999.0,85,-99.99,,,0.00,Acu-Link.com,2013-02-12 16:39:00,
2013-02-12 10:54:00,41.2,35.2,30.00,SW,225,8.9,-999.0,79,-99.99,,,0.00,Acu-Link.com,2013-02-12 16:54:00,
2013-02-12 11:10:00,42.1,34.4,30.01,WSW,247,7.8,-999.0,74,-99.99,,,0.00,Acu-Link.com,2013-02-12 17:10:00,
2013-02-12 11:25:00,43.0,33.5,30.00,SSW,202,4.2,-999.0,69,-99.99,,,0.00,Acu-Link.com,2013-02-12 17:25:00,
2013-02-12 11:41:00,44.4,32.2,29.99,WSW,247,4.7,-999.0,62,-99.99,,,0.00,Acu-Link.com,2013-02-12 17:41:00,
2013-02-12 11:56:00,45.7,33.8,29.98,NNE,22,3.7,-999.0,63,-99.99,,,0.00,Acu-Link.com,2013-02-12 17:56:00,
2013-02-12 12:11:00,46.9,33.8,29.97,NNW,337,2.2,-999.0,60,-99.99,,,0.00,Acu-Link.com,2013-02-12 18:11:00,
2013-02-12 12:27:00,48.0,32.6,29.96,SW,225,4.2,-999.0,55,-99.99,,,0.00,Acu-Link.com,2013-02-12 18:27:00,
2013-02-12 12:42:00,48.9,32.1,29.94,NW,315,5.3,-999.0,52,-99.99,,,0.00,Acu-Link.com,2013-02-12 18:42:00,
2013-02-12 12:57:00,48.7,29.9,29.93,SW,225,4.7,-999.0,48,-99.99,,,0.00,Acu-Link.com,2013-02-12 18:57:00,
2013-02-12 13:12:00,49.5,30.1,29.91,SSW,202,5.3,-999.0,47,-99.99,,,0.00,Acu-Link.com,2013-02-12 19:12:00,
2013-02-12 13:27:00,49.3,27.8,29.92,SW,225,5.8,-999.0,43,-99.99,,,0.00,Acu-Link.com,2013-02-12 19:27:00,
2013-02-12 13:43:00,50.2,29.7,29.91,WNW,292,5.8,-999.0,45,-99.99,,,0.00,Acu-Link.com,2013-02-12 19:43:00,
2013-02-12 13:58:00,51.1,31.6,29.90,WNW,292,9.4,-999.0,47,-99.99,,,0.00,Acu-Link.com,2013-02-12 19:58:00,
2013-02-12 14:13:00,50.7,30.1,29.89,North,0,2.7,-999.0,45,-99.99,,,0.00,Acu-Link.com,2013-02-12 20:13:00,
2013-02-12 14:28:00,50.7,30.1,29.89,WSW,247,3.2,-999.0,45,-99.99,,,0.00,Acu-Link.com,2013-02-12 20:28:00,
2013-02-12 14:43:00,49.8,30.4,29.88,West,270,4.7,-999.0,47,-99.99,,,0.00,Acu-Link.com,2013-02-12 20:43:00,
2013-02-12 14:59:00,49.6,29.7,29.87,WNW,292,4.7,-999.0,46,-99.99,,,0.00,Acu-Link.com,2013-02-12 20:59:00,
2013-02-12 15:14:00,50.0,30.0,29.87,West,270,2.7,-999.0,46,-99.99,,,0.00,Acu-Link.com,2013-02-12 21:14:00,
2013-02-12 15:29:00,49.8,29.3,29.86,SE,135,4.2,-999.0,45,-99.99,,,0.00,Acu-Link.com,2013-02-12 21:29:00,
2013-02-12 15:44:00,49.8,29.9,29.86,SW,225,5.8,-999.0,46,-99.99,,,0.00,Acu-Link.com,2013-02-12 21:44:00,
2013-02-12 15:59:00,49.8,29.9,29.85,ESE,112,2.7,-999.0,46,-99.99,,,0.00,Acu-Link.com,2013-02-12 21:59:00,
2013-02-12 16:15:00,49.5,29.1,29.85,WNW,292,2.7,-999.0,45,-99.99,,,0.00,Acu-Link.com,2013-02-12 22:15:00,
2013-02-12 16:30:00,49.5,29.6,29.84,WSW,247,6.3,-999.0,46,-99.99,,,0.00,Acu-Link.com,2013-02-12 22:30:00,
2013-02-12 16:45:00,49.3,29.4,29.85,SW,225,4.7,-999.0,46,-99.99,,,0.00,Acu-Link.com,2013-02-12 22:45:00,
2013-02-12 17:00:00,48.2,28.9,29.84,South,180,3.7,-999.0,47,-99.99,,,0.00,Acu-Link.com,2013-02-12 23:00:00,
2013-02-12 17:16:00,46.9,28.8,29.84,ESE,112,4.2,-999.0,49,-99.99,,,0.00,Acu-Link.com,2013-02-12 23:16:00,
2013-02-12 17:31:00,45.7,29.1,29.84,South,180,1.1,-999.0,52,-99.99,,,0.00,Acu-Link.com,2013-02-12 23:31:00,
2013-02-12 17:46:00,43.7,28.6,29.85,NW,315,2.7,-999.0,55,-99.99,,,0.00,Acu-Link.com,2013-02-12 23:46:00,
2013-02-12 18:01:00,42.8,28.2,29.85,SW,225,2.7,-999.0,56,-99.99,,,0.00,Acu-Link.com,2013-02-13 00:01:00,
2013-02-12 18:16:00,41.9,27.8,29.85,SW,225,3.7,-999.0,57,-99.99,,,0.00,Acu-Link.com,2013-02-13 00:16:00,
2013-02-12 18:32:00,41.2,28.4,29.85,SW,225,3.2,-999.0,60,-99.99,,,0.00,Acu-Link.com,2013-02-13 00:32:00,
2013-02-12 18:47:00,41.4,28.6,29.85,SSW,202,3.2,-999.0,60,-99.99,,,0.00,Acu-Link.com,2013-02-13 00:47:00,
2013-02-12 19:02:00,40.6,28.2,29.84,SW,225,2.7,-999.0,61,-99.99,,,0.00,Acu-Link.com,2013-02-13 01:02:00,
2013-02-12 19:17:00,40.5,28.1,29.84,SW,225,2.7,-999.0,61,-99.99,,,0.00,Acu-Link.com,2013-02-13 01:17:00,
2013-02-12 19:32:00,39.0,27.9,29.84,WSW,247,2.2,-999.0,64,-99.99,,,0.00,Acu-Link.com,2013-02-13 01:32:00,
2013-02-12 19:48:00,38.3,28.0,29.84,SW,225,3.2,-999.0,66,-99.99,,,0.00,Acu-Link.com,2013-02-13 01:48:00,
2013-02-12 20:03:00,38.5,28.1,29.84,South,180,2.7,-999.0,66,-99.99,,,0.00,Acu-Link.com,2013-02-13 02:03:00,
2013-02-12 20:18:00,36.9,27.7,29.85,South,180,6.3,-999.0,69,-99.99,,,0.00,Acu-Link.com,2013-02-13 02:18:00,
2013-02-12 20:33:00,36.7,28.5,29.84,SW,225,4.2,-999.0,72,-99.99,,,0.00,Acu-Link.com,2013-02-13 02:33:00,
2013-02-12 20:48:00,36.9,28.4,29.85,SSW,202,5.3,-999.0,71,-99.99,,,0.00,Acu-Link.com,2013-02-13 02:48:00,
2013-02-12 21:04:00,35.6,28.1,29.84,South,180,5.3,-999.0,74,-99.99,,,0.00,Acu-Link.com,2013-02-13 03:04:00,
2013-02-12 21:19:00,34.9,28.4,29.84,SW,225,5.3,-999.0,77,-99.99,,,0.00,Acu-Link.com,2013-02-13 03:19:00,
2013-02-12 21:34:00,34.3,28.2,29.85,SSW,202,3.7,-999.0,78,-99.99,,,0.00,Acu-Link.com,2013-02-13 03:34:00,
2013-02-12 21:49:00,34.0,27.9,29.85,SW,225,4.2,-999.0,78,-99.99,,,0.00,Acu-Link.com,2013-02-13 03:49:00,
2013-02-12 22:05:00,33.4,27.3,29.85,SW,225,2.7,-999.0,78,-99.99,,,0.00,Acu-Link.com,2013-02-13 04:05:00,
2013-02-12 22:20:00,32.2,26.7,29.86,West,270,2.2,-999.0,80,-99.99,,,0.00,Acu-Link.com,2013-02-13 04:20:00,
2013-02-12 22:35:00,30.9,25.8,29.86,WNW,292,2.2,-999.0,81,-99.99,,,0.00,Acu-Link.com,2013-02-13 04:35:00,
2013-02-12 22:50:00,30.6,25.8,29.85,WNW,292,0.0,-999.0,82,-99.99,,,0.00,Acu-Link.com,2013-02-13 04:50:00,
2013-02-12 23:05:00,30.0,25.5,29.86,WNW,292,0.0,-999.0,83,-99.99,,,0.00,Acu-Link.com,2013-02-13 05:05:00,
2013-02-12 23:21:00,29.8,25.3,29.86,West,270,2.7,-999.0,83,-99.99,,,0.00,Acu-Link.com,2013-02-13 05:21:00,
2013-02-12 23:36:00,30.2,25.4,29.86,West,270,1.7,-999.0,82,-99.99,,,0.00,Acu-Link.com,2013-02-13 05:36:00,
2013-02-12 23:51:00,29.8,25.3,29.85,WNW,292,1.7,-999.0,83,-99.99,,,0.00,Acu-Link.com,2013-02-13 05:51:00,